Regional Weather Roundup
Issued by NWS

Home | Current Version | Previous Version | Text Only | Print | Product List | Glossary On
Versions: 1 2 3 4 5 6 7 8 9 10 11 12 13 14 15 16 17 18 19 20 21 22 23 24 25 26 27 28 29 30 31 32 33 34 35 36 37 38 39 40 41 42 43 44 45 46
000
ASUS46 KSEW 280810
RWRWA

WASHINGTON REGIONAL WEATHER ROUNDUP
NATIONAL WEATHER SERVICE SEATTLE WA
1200 AM PST SUN DEC 28 2014

NOTE:"FAIR" INDICATES FEW OR NO CLOUDS BELOW 12,000 FEET WITH NO
SIGNIFICANT WEATHER AND/OR OBSTRUCTIONS TO VISIBILITY.

WAZ505-507>509-280900-
SEATTLE, TACOMA, EVERETT, AND VICINITY

CITY           SKY/WX    TMP DP  RH WIND       PRES   REMARKS
EVERETT        RAIN      41  37  86 W8        30.07R FOG
BOEING FIELD   MOCLDY    46  38  73 SE6       30.08S
RENTON         CLOUDY    44  32  62 E3        30.08S
SEATAC AIRPORT CLOUDY    43  39  86 SW7       30.08S
JBLM-MCCHORD   MOCLDY    39  39  99 S7        30.09S
PUYALLUP       NOT AVBL
BREMERTON      PTCLDY    30  30 100 CALM      30.08F
JBLM-FT LEWIS  PTCLDY    42  41  97 VRB5      30.08S
TACOMA NARROWS CLOUDY    44  39  82 VRB5      30.08S
$$

WAZ001-503-506-510-514-515-280900-
NORTH INTERIOR

CITY           SKY/WX    TMP DP  RH WIND       PRES   REMARKS
BELLINGHAM     CLOUDY    44  36  73 W8        30.05S
FRIDAY HARBOR  CLOUDY    44  35  70 CALM      30.07R
EASTSOUND      MOCLDY    45  37  76 NW7       30.05S
PORT ANGELES   CLEAR     42  36  79 MISG      30.07S
NAS WHIDBEY    MOCLDY    47  38  71 NW9       30.07R
ARLINGTON      CLOUDY    39  36  87 SE3       30.08R
BURLINGTON     CLOUDY    43  39  87 NW8       30.07S
$$

WAZ020-022-039-040-504-511-512-280900-
SOUTHWEST INTERIOR

CITY           SKY/WX    TMP DP  RH WIND       PRES   REMARKS
SHELTON        PTCLDY    42  39  89 SW13      30.05F
OLYMPIA        CLOUDY    44  38  79 S14       30.10S
CHEHALIS       PTSUNNY   43  43 100 SW5       30.13F
KELSO          CLOUDY    43  39  87 SE5       30.20F
VANCOUVER      LGT RAIN  43  40  89 CALM      30.20S
SCAPPOOSE, OR  LGT RAIN  41  38  89 W6        30.19R
PORTLAND, OR   LGT RAIN  44  40  85 SW8       30.21R
$$

WAZ021-516-517-280900-
WASHINGTON COAST

CITY           SKY/WX    TMP DP  RH WIND       PRES   REMARKS
FORKS          MOCLDY    46  39  76 NW9       30.10R
HOQUIAM        PTCLDY    48  39  71 W16       30.12S
ASTORIA, OR    LGT RAIN  46  39  76 W13       30.17F
$$

WAZ019-023-024-040-518-519-280900-
CASCADE MOUNTAINS AND COLUMBIA GORGE

CITY           SKY/WX    TMP DP  RH WIND       PRES   REMARKS
TROUTDALE, OR  LGT RAIN  45  39  79 W5        30.19S
THE DALLES, OR CLOUDY    44  36  73 NW10      30.11S
$$

WAZ026-027-041>044-520-521-280900-
EAST SLOPES

CITY           SKY/WX    TMP DP  RH WIND       PRES   REMARKS
OMAK           CLOUDY    31  28  89 CALM      29.97R
WENATCHEE      PTCLDY    38  31  76 NW18      29.93S
ELLENSBURG     CLEAR     33  29  85 NW7       29.96S
YAKIMA         CLEAR     37  25  61 SW5       29.98S
$$

WAZ028-034-035-280900-
COLUMBIA BASIN

CITY           SKY/WX    TMP DP  RH WIND       PRES   REMARKS
EPHRATA        PTCLDY    32  27  81 S3        29.93S
MOSES LAKE     MOCLDY    31  29  92 S6        29.95S
PASCO          CLEAR     41  33  73 SW16      30.03R
HERMISTON, OR  CLEAR     40  30  67 SW15      30.05S
$$

WAZ036>038-280900-
NORTHEAST WASHINGTON

CITY           SKY/WX    TMP DP  RH WIND       PRES   REMARKS
SPOKANE GEIGER MOCLDY    32  31  96 SW8       29.88R
SPOKANE FELTS  FLURRIES  35  30  82 SW8       29.91R
FAIRCHILD AFB  MIX PCPN  32  30  93 SW14      29.88R WCI  22
COEURDALENE,ID CLOUDY    34  30  86 SW16      29.87R WCI  23
DEER PARK      FOG       29  28  96 SW5       29.88R VSB 1
$$

WAZ029>033-280900-
SOUTHEAST WASHINGTON

CITY           SKY/WX    TMP DP  RH WIND       PRES   REMARKS
PULLMAN        CLOUDY    35  32  88 W20G28    29.94R WCI  24
LEWISTON, ID   PTCLDY    37  31  78 S14       29.96R
WALLA WALLA    CLOUDY    41  32  70 S9        30.04R
PENDLETON, OR  CLEAR     39  28  64 W24G38    30.02S
$$


USA.gov is the U.S. government's official web portal to all federal, state and local government web resources and services.